Regional Weather Roundup
Issued by NWS Newport/Morehead, NC

Current Version | Previous Version | Graphics & Text | Print | Product List | Glossary On
Versions: 1 2 3 4 5 6 7 8 9 10 11 12 13 14 15 16 17 18 19 20 21 22 23 24 25 26 27 28 29 30 31 32 33 34 35 36 37 38 39 40 41 42 43 44 45 46 47 48 49 50
000 ASUS42 KMHX 270110 RWRMHX WEATHER ROUNDUP FOR EASTERN NORTH CAROLINA NATIONAL WEATHER SERVICE NEWPORT/MOREHEAD CITY NC 900 PM EDT TUE AUG 26 2014 NOTE: "FAIR" INDICATES FEW OR NO CLOUDS BELOW 12,000 FEET WITH NO SIGNIFICANT WEATHER AND/OR OBSTRUCTIONS TO VISIBILITY NCZ015>017-031-032-045>047-102-103-270200- NORTH COAST CITY SKY/WX TMP DP RH WIND PRES REMARKS EDENTON CLEAR 69 65 86 N6 30.07F ELIZABETH CITY CLEAR 72 67 84 N10 30.07F KITTY HAWK CLEAR 74 68 80 N7 30.05R MANTEO CLEAR 74 68 82 N10 30.06R $$ NCZ045>047-081-094-103-104-270200- CENTRAL COAST CITY SKY/WX TMP DP RH WIND PRES REMARKS FRISCO CLEAR 74 71 91 NE13G21 30.03S SWANQUARTER N/A 72 N/A N/A N6 30.03R $$ NCZ095-097-098-100-101-270200- SOUTHERN COAST CITY SKY/WX TMP DP RH WIND PRES REMARKS BEAUFORT CLEAR 75 68 78 NE10 30.03R CEDAR ISLAND N/A 77 N/A N/A N21 30.09R JACKSONVILLE CLEAR 75 64 68 NE9 30.03R NEWPORT NOT AVBL PINEY ISLAND CLEAR 78 69 73 N14 30.04R WILMINGTON PTCLDY 73 62 68 N7 30.03R $$ NCZ011>013-027>030-043-044-078>080-089-090>093-098-270200- COASTAL PLAIN CITY SKY/WX TMP DP RH WIND PRES REMARKS AHOSKIE CLEAR 67 59 76 CALM 30.10R CLINTON PTCLDY 73 67 80 CALM 30.06S ELIZABETHTOWN PTCLDY 73 65 74 CALM 30.05S GOLDSBORO PTCLDY 74 68 80 N7 30.05R GREENVILLE CLEAR 70 63 78 N3 30.08S HAVELOCK CLEAR 75 65 70 NE13 30.05R KENANSVILLE PTCLDY 68 64 88 CALM 30.06S KINSTON PTCLDY 70 61 73 N5 30.06 NEW BERN CLEAR 74 65 73 NE8 30.06R RICHLANDS PTCLDY 72 59 64 NE7 30.04S ROANOKE RAPIDS NOT AVBL ROCKY MOUNT PTCLDY 68 62 81 CALM 30.08S WASHINGTON CLEAR 71 65 83 NE6 30.06F WHITEVILLE CLEAR 74 66 77 CALM 30.03S $$ AMZ130-135-150-152-154-156-158-170-250-252-270-ANZ085-086-088-633-658-670-270200- MARINE OBSERVATIONS STATION/POSITION TIME TEMP WIND PRES WAVE SWELL AIR SEA DIR/SP/G HT/PER HT/PER (UTC) (F) (DEG/KT/KT) (MB) (FT/S) (FT/S) CHESAPEAKE LIGHT 0000 73 40/ 14/ 15 1019.4 BUOY 44014 0100 77 78 40/ 14/ 17 1017.0 6/ 9 5/ 9 DUCK 0100 75 76 10/ 15/ 17 1017.0 2E DUCK 0100 N/A 5/ 9 2/11 OREGON INLET 0100 75 78 20/ 13/ 17 1017.5 BUOY 44095 0100 76 N/A 6/11 3/11 20E OREGON INLET NOT AVBL HATTERAS CG 0100 76 79 30/ 13/ 17 1017.2 DIAMOND BUOY 0100 77 10/ 19/ 23 1015.3 7/11 3/11 CAPE LOOKOUT 0000 76 20/ 19/ 23 1016.1 BEAUFORT LAB 0100 75 79 20/ 10/ 13 1016.4 30 SE NEW RIVER 0100 78 82 30/ 21/ 25 1016.0 7/ 9 3/ 9 5 SE WRIGHTSVILL 0000 78 81 30/ 16/ 19 N/A BUOY 41002 0047 80 81 40/ 23/ 27 1010.3 10/ 8 3/11 BUOY 41004 0100 80 83 20/ 19/ 21 1014.7 7/11 5/11 $$

USA.gov is the U.S. government's official web portal to all federal, state and local government web resources and services.